Location: Alfortville
(48.8058°N, 2.4204°E)
Time: 17:24:52
(UTC+00:00)

Meteor 1-19 Rocket - Pass Details

Date: 11 December 2023
Orbit: 806 x 928 km, 81.2° (Epoch: 04 March)

Event Time Altitude Azimuth Distance (km) Brightness Sun altitude
Rises 04:04:12 0° 357° (N) 3,586 7.5 -33.2°
Reaches altitude 10° 04:07:54 10° 20° (NNE) 2,628 7.0 -32.6°
Maximum altitude 04:11:20 15° 55° (NE) 2,240 6.9 -32.0°
Drops below altitude 10° 04:14:44 10° 90° (E) 2,588 7.6 -31.5°
Sets 04:18:18 0° 113° (ESE) 3,501 8.4 -30.9°
